Location: Dingé
(48.3570°N, 1.7149°W)
Time: 18:51:58
(UTC+00:00)

Daily predictions for brighter satellites

Satellite Brightness Start Highest point End
(mag) Time Altitude Azimuth Time Altitude Azimuth Time Altitude Azimuth
CENTAUR R/B 4.3 18:21:32 10° W 18:27:13 31° NNW 18:33:58 10° NE
Cosmos 2263 Rocket 4.4 18:24:13 10° NW 18:29:01 30° WSW 18:33:47 10° SSW
Cosmos 2285 Rocket 4.1 18:24:03 10° S 18:30:10 54° ESE 18:36:17 10° NNE
Cosmos 1674 2.8 18:26:50 10° N 18:30:18 47° ENE 18:33:47 10° SSE
JB-3 4.3 18:32:37 10° NNE 18:36:23 59° E 18:40:10 10° S
Cosmos 1842 3.2 18:33:45 10° N 18:37:35 89° W 18:41:23 10° S
Cosmos 1470 Rocket 4.4 18:34:31 10° SSE 18:38:12 28° E 18:41:55 10° NNE
Cosmos 1726 3.0 18:35:41 10° SE 18:38:25 23° E 18:41:11 10° NE
Cosmos 2084 3.1 18:35:07 10° NW 18:38:53 80° NE 18:42:44 10° SE
Cosmos 1452 Rocket 3.7 18:34:46 10° NNW 18:39:58 54° ENE 18:45:07 10° SE
USA 215 4.0 18:36:53 10° ENE 18:42:33 31° SE 18:48:11 10° S
COSMOS 2455 4.2 18:38:40 10° NNW 18:43:30 24° NNE 18:48:19 10° E
Cosmos 494 Rocket 4.1 18:39:47 10° S 18:44:52 53° ESE 18:49:58 10° NNE
Okean 3 4.1 18:41:38 10° N 18:45:24 33° ENE 18:49:08 10° SE
Sich 1 4.1 18:44:20 10° SSW 18:48:27 49° WNW 18:52:35 10° N
PAYLOAD B 4.3 18:43:10 10° SSE 18:48:40 65° ENE 18:54:11 10° N
Cosmos 1048 Rocket 4.3 18:43:55 10° S 18:49:04 49° ESE 18:54:14 10° NNE
Nadezhda 1 Rocket 4.3 18:42:56 10° SSW 18:49:18 77° W 18:55:44 10° N
SKYMED 2 4.5 18:46:03 10° N 18:50:18 55° WNW 18:54:32 10° SSW
Cosmos 2341 Rocket 4.0 18:44:27 10° N 18:50:41 67° ENE 18:56:58 10° SSE
BREEZE-M R/B 4.1 18:46:18 10° W 18:50:51 80° N 19:00:39 10° E
Cosmos 2366 rocket 4.1 18:45:37 10° N 18:51:41 53° ENE 18:57:40 10° SSE
ISS -3.0 18:49:16 10° W 18:52:31 47° N 18:55:41 11° ENE
SL-8 Rocket 4.0 18:47:27 10° N 18:53:40 63° ENE 18:59:53 10° SSE
Iridium 2 3.3 18:50:40 10° N 18:54:07 67° E 18:57:32 10° SSE
USA 305 3.7 18:54:08 10° NW 18:55:52 18° N 18:57:36 10° NE
SKYMED 3 4.4 18:53:11 10° NNE 18:57:20 85° E 19:01:31 10° SSW
CZ-4B R/B 3.7 18:54:57 10° S 18:58:25 47° W 19:01:50 10° NNW
CZ-4B DEB 4.3 18:55:34 10° SSE 19:01:01 80° WSW 19:06:31 10° NNW
Cosmos 1844 Rocket 2.9 18:55:48 10° NNW 19:01:23 74° WSW 19:06:55 10° SSE
Cosmos 1980 Rocket 4.5 18:56:53 10° W 19:01:29 25° NW 19:06:09 10° N
SL-16 R/B 2.6 18:57:58 10° SW 19:03:38 69° WNW 19:09:19 10° NNE
Cosmos 1805 3.9 19:01:50 10° SSE 19:05:09 30° E 19:08:30 10° NNE
Cosmos 2228 Rocket 4.3 19:00:57 10° NNW 19:05:15 47° W 19:09:34 10° SSW
Cosmos 1703 Rocket 4.2 19:01:27 10° N 19:05:34 36° ENE 19:09:37 10° SE
BREEZE M DEB (TANK) 3.8 19:05:36 10° SSE 19:05:46 11° SSE 19:05:46 11° SSE
ADEOS Rocket 4.2 19:00:21 10° ESE 19:07:17 37° ENE 19:13:58 10° N
SL-14 R/B 3.9 19:03:39 10° N 19:07:19 35° ENE 19:10:26 13° SE
Cosmos 2219 Rocket 2.7 19:03:20 10° S 19:08:19 35° ESE 19:13:20 10° NE
USA 306 3.6 19:05:02 10° WNW 19:08:38 38° N 19:11:24 16° ENE
In-Cosmos 22 4.4 19:04:46 10° NNW 19:10:15 73° W 19:15:33 10° S
NOSS 2-3 (E) 4.2 19:07:28 10° S 19:10:33 25° ESE 19:13:24 12° ENE
Cosmos 1666 Rocket 3.9 19:06:48 10° SSW 19:11:15 72° W 19:15:44 10° N
Okean 2 4.2 19:11:40 10° N 19:15:13 29° ENE 19:17:04 20° ESE
CSL-04 Debris 4.5 19:10:05 10° SE 19:15:17 47° ENE 19:20:29 10° N
SL-8 R/B 3.7 19:11:11 10° W 19:15:58 88° N 19:19:19 20° E
CZ-4C R/B 3.2 19:12:50 10° NNE 19:16:08 43° E 19:19:24 10° S
Cosmos 1943 Rocket 4.1 19:13:09 10° N 19:16:20 15° NE 19:19:16 11° ENE
Cosmos 2218 Rocket 3.9 19:10:38 10° N 19:16:49 77° E 19:22:58 10° SSE
Cosmos 1933 Rocket 4.0 19:13:02 10° SSE 19:17:06 38° E 19:21:10 10° NNE
USA 307 3.4 19:15:46 10° NW 19:18:03 25° N 19:19:18 18° NE
USA 186 2.3 19:17:05 25° ESE 19:18:14 35° ENE 19:21:02 10° N
USA 267 3.5 19:13:24 16° E 19:18:43 61° NNE 19:25:09 10° NW
APEX 4.5 19:17:11 10° N 19:20:36 24° NE 19:21:49 20° ENE
CZ-4B R/B 3.1 19:17:29 10° SSE 19:22:46 86° ENE 19:28:06 10° NNW
PSLV R/B 3.7 19:22:18 10° SSE 19:26:07 85° WSW 19:30:01 10° NNW
Feng Yun 1-1 Rocket 4.3 19:20:18 10° SSE 19:26:09 73° ENE 19:31:55 10° NNW
Okean O Rocket 1.6 19:24:10 10° SSE 19:28:31 68° ENE 19:32:57 10° N
USA 81 4.0 19:23:18 10° S 19:28:33 78° E 19:33:49 10° N
CZ-4C R/B 4.2 19:24:24 10° WNW 19:28:48 25° NNW 19:34:03 10° NE
Cosmos 2322 Rocket 2.6 19:23:56 10° SW 19:29:30 65° WNW 19:35:06 10° NNE
Landsat 7 3.9 19:26:00 10° S 19:30:43 80° WSW 19:35:26 10° NNW
Okean 1-7 2.9 19:26:31 10° N 19:30:51 81° E 19:35:11 10° SSE
Meteor 1-21 4.4 19:25:33 10° NNW 19:31:24 83° W 19:37:11 10° S
Landsat 4 4.0 19:28:09 10° S 19:31:43 64° WSW 19:35:20 10° NNW
Cosmos 2278 Rocket 3.2 19:28:46 10° NNW 19:33:43 30° NE 19:36:02 22° E
Cosmos 1340 Rocket 2.8 19:30:40 10° NNW 19:34:45 89° W 19:38:40 11° S
Lacrosse 5 3.1 19:30:39 10° W 19:35:24 38° NNW 19:40:11 10° NE
Cosmos 1110 Rocket 4.4 19:32:21 10° NNW 19:37:29 64° WSW 19:42:37 10° S
Resurs 01 Rocket 2.1 19:36:15 28° ESE 19:37:57 41° ENE 19:42:07 10° N
CSL-04 Rocket 3.6 19:34:22 16° SSE 19:38:37 64° ENE 19:43:51 10° N
SJ-6B 3.2 19:39:20 10° S 19:43:19 65° W 19:47:20 10° NNW
Cosmos 1818 4.1 19:38:20 10° NNW 19:43:34 43° NE 19:45:51 29° E
Cosmos 1733 3.7 19:42:49 10° SSW 19:46:27 59° WNW 19:50:07 10° N
Cosmos 2181 Rocket 4.2 19:41:47 10° SSW 19:48:14 80° W 19:54:40 10° N
DEBRIS 4.1 19:49:19 10° WSW 19:50:57 18° SSW 19:51:12 18° SSW
Cosmos 1241 Rocket 4.4 19:46:34 10° NW 19:52:54 77° NE 19:56:08 30° SE
CZ-4 R/B 2.7 19:49:23 10° SSW 19:53:03 38° W 19:56:41 10° NNW
Okean-O 2.8 19:51:51 39° ESE 19:53:06 53° ENE 19:57:24 10° N
BREEZE-M DEB (TANK) 2.8 19:48:21 10° WNW 19:53:14 80° N 19:53:38 62° ENE
BREEZE-M DEB (TANK) 2.7 19:50:46 10° WNW 19:53:19 74° SSW 19:54:41 40° ESE
USA 308 2.4 19:50:00 10° WNW 19:53:30 72° NNE 19:54:06 57° E
Cosmos 1766 4.1 19:56:26 33° NE 19:56:26 33° NE 19:58:58 10° NNE
Cosmos 2333 Rocket 2.4 19:49:57 10° SW 19:55:36 73° WNW 20:01:18 10° NNE
Cosmos 2333 4.3 19:50:29 10° SSW 19:56:06 80° WNW 20:01:47 10° NNE
Cosmos 1869 Rocket 3.6 19:55:10 36° SSE 19:56:36 53° E 20:00:53 10° NNE
Resurs 1-3 4.1 19:53:51 10° S 19:58:09 58° W 20:02:28 10° NNW
Cosmos 1975 3.8 19:56:06 10° SSW 19:59:49 46° WNW 20:03:35 10° N
Cosmos 2360 Rocket 3.0 19:54:51 10° SW 20:00:22 53° NW 20:05:55 10° NNE
COSMOS 2428 2.8 19:55:21 10° S 20:00:45 48° ESE 20:06:12 10° NE
Cosmos 2322 3.6 19:56:45 10° SSW 20:02:23 63° ESE 20:08:04 10° NNE
Cosmos 2242 Rocket 3.5 19:58:04 10° N 20:02:31 65° E 20:03:34 48° SE
Cosmos 2369 Rocket 4.4 20:07:07 10° N 20:09:06 12° NNE 20:10:56 10° NE
Cosmos 1302 Rocket 4.1 20:03:53 10° NNW 20:09:11 78° WSW 20:11:40 32° S
ATLAS 3B R/B 2.9 20:03:01 10° S 20:09:30 46° ESE 20:16:25 10° NE
Cosmos 1726 4.5 20:09:53 10° SW 20:12:38 22° WNW 20:15:23 10° NNW
MOS 1 4.3 20:12:48 44° ESE 20:14:19 59° ENE 20:19:52 10° N
Cosmos 1992 Rocket 3.9 20:14:53 10° NNW 20:20:07 68° ENE 20:20:54 58° ESE
MetOp-B 4.3 20:22:13 49° E 20:22:36 50° ENE 20:27:46 10° N
Cosmos 1934 Rocket 4.0 20:17:20 10° N 20:23:42 65° ENE 20:25:24 47° SE
NOSS 2-3 (C) 3.4 20:20:42 10° SW 20:24:27 73° NW 20:25:24 50° NNE
USA 215 3.2 20:19:39 11° NE 20:26:05 89° SE 20:32:39 10° WSW
SPOT 1/Viking Rocket 4.2 20:23:43 20° S 20:27:08 54° W 20:32:11 10° NNW
Cosmos 1821 Rocket 4.5 20:21:26 10° NNW 20:27:32 59° W 20:33:13 12° S
Ariane Rocket 3.8 20:28:25 35° NE 20:28:25 35° NE 20:32:31 10° N
Cosmos 2239 Rocket 4.5 20:21:42 10° N 20:27:52 80° W 20:31:14 29° S
NOSS 2-3 (D) 3.5 20:25:48 10° SW 20:29:33 71° NW 20:29:43 69° NNW
ISS -2.4 20:26:17 10° WNW 20:28:37 39° NW 20:28:37 39° NW
COSMOS 2455 2.7 20:24:16 10° NNW 20:30:20 83° NE 20:31:38 57° SE
Terra 3.2 20:41:30 27° NNE 20:41:30 27° NNE 20:44:14 10° N
Nadezhda 3 Rocket 4.3 20:37:21 10° SSW 20:43:41 69° W 20:50:04 10° N
USA 306 3.8 20:41:15 10° WNW 20:43:54 42° WNW 20:43:54 42° WNW
IRS-1A Rocket 4.0 20:50:23 82° ESE 20:50:34 85° ENE 20:56:07 10° NNW
Cosmos 2219 Rocket 3.2 20:46:50 10° SW 20:52:09 44° NW 20:57:31 10° NNE
ADEOS Rocket 3.9 20:47:00 21° S 20:52:22 61° W 20:59:52 10° NNW
Cosmos 614 Rocket 4.4 20:59:20 51° N 20:59:20 51° N 21:03:09 10° NNE
Cosmos 1943 Rocket 2.6 20:55:48 10° NNW 21:00:47 53° NNE 21:00:47 53° NNE
USA 267 3.4 21:00:45 53° S 21:01:46 59° SW 21:08:15 10° WNW
Meteor 2-5 Rocket 3.8 20:58:02 10° N 21:03:17 71° NNE 21:03:17 71° NNE
Okean O Rocket 4.4 21:02:48 10° WSW 21:05:18 15° W 21:07:48 10° NW
SPOT 5 3.6 21:10:23 46° NNW 21:10:23 46° NNW 21:13:36 10° NNW
SPOT 3 Rocket 4.3 21:15:15 46° N 21:15:15 46° N 21:18:55 10° N
Resurs 01 Rocket 3.5 21:13:46 23° WSW 21:14:33 24° W 21:18:11 10° NW
Cosmos 2278 Rocket 2.6 21:12:35 10° NW 21:17:52 57° W 21:17:52 57° W
Lacrosse 5 3.3 21:14:51 10° WNW 21:19:27 32° N 21:19:29 32° N
CZ-4C R/B 4.5 21:14:50 10° NW 21:19:28 22° N 21:23:43 13° NE
ERS-1 Rocket 3.8 21:21:41 45° N 21:21:41 45° N 21:25:09 10° NNW
Meteor 1-24 Rocket 4.5 21:34:59 10° NNW 21:39:14 47° NW 21:39:14 47° NW
COSMOS 2428 4.2 21:40:05 10° WSW 21:45:12 34° NW 21:50:22 10° NNE
Cosmos 2237 Rocket 3.8 21:51:54 26° NNE 21:51:54 26° NNE 21:54:21 10° NNE
Cosmos 2369 Rocket 3.7 21:49:28 10° NNW 21:52:42 30° N 21:52:42 30° N
ATLAS 3B R/B 3.4 21:53:18 10° WSW 22:00:10 54° NW 22:07:34 10° NE
USA 215 4.0 22:07:03 39° NNE 22:08:50 49° NNW 22:15:04 10° W
CENTAUR R/B 3.8 22:05:42 10° NW 22:13:07 44° NNE 22:13:52 43° NE
Terra 4.2 22:20:15 20° NW 22:20:15 20° NW 22:21:57 10° NNW
Cosmos 1943 Rocket 4.4 22:40:07 10° NW 22:42:17 20° WNW 22:42:17 20° WNW
CZ-4C R/B 3.9 23:03:37 10° NW 23:08:49 37° NNE 23:08:49 37° NNE
SL-16 R/B 4.5 23:38:11 20° N 23:38:11 20° N 23:40:08 10° NNE
